Regional Weather Roundup
Issued by NWS Cleveland, OH

Home | Current Version | Previous Version | Graphics & Text | Print | Product List | Glossary On
Versions: 1 2 3 4 5 6 7 8 9 10 11 12 13 14 15 16 17 18 19 20 21 22 23 24 25 26 27 28 29 30 31 32 33 34 35 36 37 38 39 40 41 42 43 44 45 46 47 48 49 50
000
ASUS41 KCLE 311600
RWRCLE
OHIO REGIONAL WEATHER ROUNDUP
NATIONAL WEATHER SERVICE WILMINGTON, OH
1200 PM EDT MON AUG 31 2015

NOTE: "FAIR" INDICATES FEW OR NO CLOUDS BELOW 12,000 FEET WITH NO
SIGNIFICANT WEATHER AND/OR OBSTRUCTIONS TO VISIBILITY.

OHZ001>008-015>018-024>027-034-035-043-044-311700-
   NORTHWEST OHIO

CITY           SKY/WX    TMP DP  RH WIND       PRES   REMARKS
DEFIANCE       MOSUNNY   78  70  76 SW3       30.12S
FINDLAY        SUNNY     81  69  67 W6        30.12R
TOLEDO EXPRESS MOSUNNY   80  69  69 VRB6      30.11S
TOLEDO EXEC    MOSUNNY   80  68  66 VRB5      30.12S
LIMA           SUNNY     80  68  66 W7        30.13S
$$

OHZ009>014-019>023-028>033-038-089-311700-
   NORTHEAST OHIO

CITY           SKY/WX    TMP DP  RH WIND       PRES   REMARKS
CLE-HOPKINS    MOSUNNY   81  69  67 NW5       30.13S
CLE-LAKEFRONT  SUNNY     76  68  76 W6        30.10S
CUY CO. ARPT   MOSUNNY   81  70  69 SW8       30.12R
LORAIN-ELYRIA  SUNNY     80  69  69 NW5       30.12S
ASHTABULA      SUNNY     80  70  71 NW9       30.11F
AKRON-CANTON   MOSUNNY   82  66  58 NW8       30.13S
WOOSTER        NOT AVBL
MANSFIELD      SUNNY     82  68  62 W7        30.14S
YOUNGSTOWN     MOSUNNY   81  67  62 W9        30.12S
$$

OHZ042-051>053-060>062-070>072-077>081-311700-
  SOUTHWEST OHIO

CITY           SKY/WX    TMP DP  RH WIND       PRES   REMARKS
CINC-COVINGTON MOSUNNY   82  68  62 VRB5      30.15F
CINC-LUNKEN    PTSUNNY   81  70  69 W5        30.14F
HAMILTON       SUNNY     82  69  64 W6        30.15S
DAYTON         NOT AVBL
WRIGHT-PAT AFB NOT AVBL
DAYTON GENERAL SUNNY     80  67  64 SW9       30.14S
WILMINGTON     PTSUNNY   81  68  64 SW6       30.15S
$$

OHZ036-037-039>041-045>050-054>059-063>069-073>076-082>088-311700-
  CENTRAL AND SOUTHEAST OHIO

CITY           SKY/WX    TMP DP  RH WIND       PRES   REMARKS
COLUMBUS       MOSUNNY   82  69  64 N5        30.13S
OSU AIRPORT    MOSUNNY   82  68  62 W7        30.14S
BOLTON FIELD   SUNNY     81  70  69 W3        30.15S
RICKENBACK AFB NOT AVBL
NEWARK         SUNNY     82  69  64 VRB5      30.13F
MARION         SUNNY     80  68  66 VRB3      30.14S
LANCASTER      MOSUNNY   80  67  64 CALM      30.15S
ZANESVILLE     MOSUNNY   83  65  54 VRB5      30.14
NEW PHILLY     SUNNY     82  69  64 W6        30.14S
$$



USA.gov is the U.S. government's official web portal to all federal, state and local government web resources and services.